| time (UTC) | temp F | wind direction | speed MPH | gust MPH | rain 1hr in | rain 24hr in | rain mn in | humidity % | barometer mb |
| 20260506102305 | 61 | 170 | 0.0 | 4.0 | 0.00 | 0.00 | 0.00 | 75 | 1007.6 |
| 20260506101730 | 61 | 179 | 0.0 | 4.0 | 0.00 | 0.00 | 0.00 | 74 | 1007.6 |
| 20260506101230 | 61 | 195 | 1.0 | 6.0 | 0.00 | 0.00 | 0.00 | 74 | 1007.6 |
| 20260506100731 | 61 | 200 | 1.0 | 6.0 | 0.00 | 0.00 | 0.00 | 73 | 1007.5 |
| 20260506100230 | 61 | 183 | 0.0 | 5.0 | 0.00 | 0.00 | 0.00 | 73 | 1007.5 |
| 20260506095730 | 61 | 188 | 0.0 | 3.0 | 0.00 | 0.00 | 0.00 | 73 | 1007.3 |
| 20260506095157 | 61 | 196 | 0.0 | 1.0 | 0.00 | 0.00 | 0.00 | 73 | 1007.4 |
| 20260506094929 | 61 | 177 | 0.0 | 1.0 | 0.00 | 0.00 | 0.00 | 72 | 1007.3 |
| 20260506094157 | 61 | 201 | 0.0 | 1.0 | 0.00 | 0.00 | 0.00 | 72 | 1007.2 |
| 20260506093928 | 61 | 168 | 0.0 | 2.0 | 0.00 | 0.00 | 0.00 | 72 | 1007.3 |
| 20260506093429 | 61 | 170 | 0.0 | 2.0 | 0.00 | 0.00 | 0.00 | 72 | 1007.3 |
| 20260506092928 | 61 | 210 | 1.0 | 1.0 | 0.00 | 0.00 | 0.00 | 71 | 1007.3 |
| 20260506092157 | 61 | 170 | 0.0 | 6.0 | 0.00 | 0.00 | 0.00 | 71 | 1007.1 |
| 20260506091657 | 61 | 190 | 0.0 | 4.0 | 0.00 | 0.00 | 0.00 | 70 | 1007.6 |
| 20260506091157 | 61 | 182 | 0.0 | 4.0 | 0.00 | 0.00 | 0.00 | 70 | 1007.7 |
| 20260506090657 | 62 | 187 | 0.0 | 4.0 | 0.00 | 0.00 | 0.00 | 70 | 1007.7 |
| 20260506090427 | 62 | 213 | 0.0 | 4.0 | 0.00 | 0.00 | 0.00 | 70 | 1007.5 |
| 20260506085625 | 62 | 185 | 0.0 | 4.0 | 0.00 | 0.00 | 0.00 | 69 | 1007.3 |
| 20260506085125 | 62 | 235 | 0.0 | 4.0 | 0.00 | 0.00 | 0.00 | 69 | 1007.4 |
| 20260506084625 | 62 | 199 | 1.0 | 7.0 | 0.00 | 0.00 | 0.00 | 69 | 1007.4 |
| 20260506084053 | 62 | 189 | 1.0 | 7.0 | 0.00 | 0.00 | 0.00 | 68 | 1007.5 |
| 20260506083553 | 62 | 192 | 1.0 | 9.0 | 0.00 | 0.00 | 0.00 | 68 | 1007.5 |
| 20260506083251 | 62 | 169 | 0.0 | 9.0 | 0.00 | 0.00 | 0.00 | 68 | 1007.6 |
| 20260506082521 | 62 | 178 | 0.0 | 3.0 | 0.00 | 0.00 | 0.00 | 67 | 1007.6 |
| 20260506082020 | 62 | 184 | 0.0 | 0.0 | 0.00 | 0.00 | 0.00 | 66 | 1007.6 |
| 20260506081448 | 62 | 185 | 0.0 | 5.0 | 0.00 | 0.00 | 0.00 | 66 | 1007.7 |
| 20260506080948 | 63 | 168 | 0.0 | 5.0 | 0.00 | 0.00 | 0.00 | 66 | 1007.8 |
| 20260506080647 | 63 | 189 | 1.0 | 5.0 | 0.00 | 0.00 | 0.00 | 65 | 1007.9 |
| 20260506072709 | 64 | 170 | 2.0 | 10.0 | 0.00 | 0.00 | 0.00 | 63 | 1008.1 |
| 20260506072138 | 64 | 172 | 1.0 | 10.0 | 0.00 | 0.00 | 0.00 | 63 | 1008.0 |
| 20260506071606 | 64 | 176 | 1.0 | 3.0 | 0.00 | 0.00 | 0.00 | 63 | 1008.1 |
| 20260506071032 | 64 | 190 | 1.0 | 7.0 | 0.00 | 0.00 | 0.00 | 63 | 1008.1 |
| 20260506070459 | 64 | 173 | 0.0 | 6.0 | 0.00 | 0.00 | 0.00 | 63 | 1008.1 |
| 20260506062043 | 64 | 164 | 0.0 | 4.0 | 0.00 | 0.00 | 0.00 | 62 | 1008.6 |
| 20260506061510 | 64 | 176 | 0.0 | 1.0 | 0.00 | 0.00 | 0.00 | 62 | 1008.6 |
| 20260506060939 | 64 | 175 | 0.0 | 2.0 | 0.00 | 0.00 | 0.00 | 61 | 1008.7 |
| 20260506060637 | 64 | 168 | 0.0 | 2.0 | 0.00 | 0.00 | 0.00 | 62 | 1008.7 |
| 20260506051125 | 65 | 180 | 0.0 | 2.0 | 0.00 | 0.00 | 0.00 | 59 | 1008.9 |
| 20260506050625 | 65 | 216 | 0.0 | 2.0 | 0.00 | 0.00 | 0.00 | 58 | 1009.0 |
| 20260506050325 | 65 | 178 | 0.0 | 2.0 | 0.00 | 0.00 | 0.00 | 58 | 1009.0 |
| 20260506045021 | 65 | 177 | 0.0 | 9.0 | 0.00 | 0.00 | 0.00 | 58 | 1009.0 |
| 20260506044448 | 65 | 162 | 0.0 | 1.0 | 0.00 | 0.00 | 0.00 | 58 | 1009.3 |
| 20260506043948 | 65 | 170 | 0.0 | 1.0 | 0.00 | 0.00 | 0.00 | 58 | 1009.2 |
| 20260506043416 | 65 | 166 | 0.0 | 1.0 | 0.00 | 0.00 | 0.00 | 58 | 1009.2 |
| 20260506042916 | 65 | 192 | 0.0 | 1.0 | 0.00 | 0.00 | 0.00 | 58 | 1009.2 |
| 20260506042648 | 65 | 192 | 0.0 | 1.0 | 0.00 | 0.00 | 0.00 | 58 | 1009.3 |
| 20260506041916 | 65 | 203 | 0.0 | 1.0 | 0.00 | 0.00 | 0.00 | 58 | 1009.3 |
| 20260506041615 | 65 | 248 | 0.0 | 3.0 | 0.00 | 0.00 | 0.00 | 57 | 1009.3 |
| 20260506041044 | 65 | 178 | 0.0 | 4.0 | 0.00 | 0.00 | 0.00 | 57 | 1009.3 |
| 20260506040313 | 65 | 199 | 0.0 | 4.0 | 0.00 | 0.00 | 0.00 | 57 | 1009.3 |
| 20260506035813 | 65 | 223 | 0.0 | 3.0 | 0.00 | 0.00 | 0.00 | 57 | 1009.4 |
| 20260506035313 | 65 | 173 | 0.0 | 0.0 | 0.00 | 0.00 | 0.00 | 56 | 1009.4 |
| 20260506034742 | 66 | 184 | 0.0 | 0.0 | 0.00 | 0.00 | 0.00 | 56 | 1009.4 |
| 20260506034211 | 66 | 176 | 0.0 | 2.0 | 0.00 | 0.00 | 0.00 | 55 | 1009.4 |
| 20260506033910 | 67 | 180 | 0.0 | 2.0 | 0.00 | 0.00 | 0.00 | 54 | 1009.3 |
| 20260506033108 | 67 | 177 | 0.0 | 1.0 | 0.00 | 0.00 | 0.00 | 54 | 1009.3 |
| 20260506032535 | 67 | 178 | 1.0 | 7.0 | 0.00 | 0.00 | 0.00 | 53 | 1009.3 |
| 20260506032002 | 67 | 173 | 1.0 | 7.0 | 0.00 | 0.00 | 0.00 | 52 | 1009.2 |
| 20260506031430 | 67 | 190 | 0.0 | 3.0 | 0.00 | 0.00 | 0.00 | 52 | 1009.3 |
| 20260506030858 | 68 | 183 | 0.0 | 2.0 | 0.00 | 0.00 | 0.00 | 52 | 1009.3 |
| 20260506030328 | 68 | 181 | 0.0 | 2.0 | 0.00 | 0.00 | 0.00 | 51 | 1009.3 |
| 20260506025756 | 68 | 233 | 0.0 | 2.0 | 0.00 | 0.00 | 0.00 | 51 | 1009.5 |
| 20260506025456 | 68 | 182 | 0.0 | 1.0 | 0.00 | 0.00 | 0.00 | 50 | 1009.5 |
| 20260506024654 | 69 | 174 | 0.0 | 0.0 | 0.00 | 0.00 | 0.00 | 50 | 1009.6 |
| 20260506024122 | 69 | 170 | 0.0 | 1.0 | 0.00 | 0.00 | 0.00 | 50 | 1009.6 |
| 20260506023549 | 69 | 215 | 0.0 | 6.0 | 0.00 | 0.00 | 0.00 | 50 | 1009.6 |
| 20260506023018 | 69 | 204 | 1.0 | 8.0 | 0.00 | 0.00 | 0.00 | 49 | 1009.6 |
| 20260506022518 | 69 | 179 | 0.0 | 8.0 | 0.00 | 0.00 | 0.00 | 50 | 1009.6 |
| 20260506022018 | 69 | 176 | 0.0 | 1.0 | 0.00 | 0.00 | 0.00 | 49 | 1009.6 |
| 20260506021518 | 69 | 172 | 0.0 | 0.0 | 0.00 | 0.00 | 0.00 | 50 | 1009.6 |
| 20260506021018 | 70 | 182 | 0.0 | 4.0 | 0.00 | 0.00 | 0.00 | 50 | 1009.7 |
| 20260506020749 | 70 | 215 | 0.0 | 4.0 | 0.00 | 0.00 | 0.00 | 49 | 1009.6 |
| 20260506015945 | 70 | 223 | 0.0 | 0.0 | 0.00 | 0.00 | 0.00 | 49 | 1009.5 |
| 20260506015822 | 70 | 247 | 1.0 | 11.0 | 0.00 | 0.00 | 0.00 | 49 | 1009.4 |
| 20260506015716 | 70 | 182 | 0.0 | 2.0 | 0.00 | 0.00 | 0.00 | 49 | 1009.5 |
| 20260506014446 | 71 | 220 | 1.0 | 11.0 | 0.00 | 0.00 | 0.00 | 49 | 1009.5 |
| 20260506013946 | 71 | 234 | 1.0 | 12.0 | 0.00 | 0.00 | 0.00 | 49 | 1009.4 |
| 20260506013446 | 71 | 184 | 2.0 | 12.0 | 0.00 | 0.00 | 0.00 | 48 | 1009.4 |
| 20260506012914 | 71 | 255 | 2.0 | 10.0 | 0.00 | 0.00 | 0.00 | 49 | 1009.3 |
| 20260506012414 | 71 | 165 | 1.0 | 4.0 | 0.00 | 0.00 | 0.00 | 49 | 1009.3 |
| 20260506011914 | 71 | 177 | 1.0 | 7.0 | 0.00 | 0.00 | 0.00 | 49 | 1009.4 |
| 20260506011613 | 71 | 188 | 1.0 | 10.0 | 0.00 | 0.00 | 0.00 | 49 | 1009.2 |
| 20260506011010 | 71 | 176 | 1.0 | 2.0 | 0.00 | 0.00 | 0.00 | 49 | 1009.0 |
| 20260506010845 | 71 | 151 | 1.0 | 10.0 | 0.00 | 0.00 | 0.00 | 49 | 1009.0 |
| 20260506005706 | 71 | 168 | 1.0 | 1.0 | 0.00 | 0.00 | 0.00 | 49 | 1008.7 |
| 20260506005134 | 71 | 176 | 0.0 | 3.0 | 0.00 | 0.00 | 0.00 | 49 | 1008.7 |
| 20260506004634 | 71 | 197 | 1.0 | 4.0 | 0.00 | 0.00 | 0.00 | 49 | 1008.7 |
| 20260506004134 | 71 | 156 | 1.0 | 4.0 | 0.00 | 0.00 | 0.00 | 49 | 1008.6 |
| 20260506003634 | 71 | 196 | 1.0 | 3.0 | 0.00 | 0.00 | 0.00 | 48 | 1008.6 |
| 20260506003101 | 71 | 197 | 1.0 | 3.0 | 0.00 | 0.00 | 0.00 | 48 | 1008.6 |
| 20260506002529 | 71 | 193 | 0.0 | 3.0 | 0.00 | 0.00 | 0.00 | 47 | 1008.6 |
| 20260506001956 | 71 | 171 | 0.0 | 1.0 | 0.00 | 0.00 | 0.00 | 47 | 1008.7 |
| 20260506001425 | 72 | 166 | 0.0 | 0.0 | 0.00 | 0.00 | 0.00 | 46 | 1008.7 |
| 20260506000855 | 72 | 184 | 0.0 | 2.0 | 0.00 | 0.00 | 0.00 | 46 | 1008.7 |
| 20260506000323 | 72 | 259 | 0.0 | 2.0 | 0.00 | 0.00 | 0.00 | 45 | 1008.5 |
| 20260505235751 | 72 | 177 | 0.0 | 2.0 | 0.00 | 0.00 | 0.00 | 46 | 1008.5 |
| 20260505235450 | 72 | 203 | 1.0 | 12.0 | 0.00 | 0.00 | 0.00 | 46 | 1008.6 |
| 20260505234649 | 72 | 176 | 0.0 | 12.0 | 0.00 | 0.00 | 0.00 | 45 | 1008.3 |
| 20260505234116 | 72 | 229 | 0.0 | 1.0 | 0.00 | 0.00 | 0.00 | 46 | 1008.4 |
| 20260505233543 | 72 | 178 | 0.0 | 4.0 | 0.00 | 0.00 | 0.00 | 46 | 1008.4 |
| 20260505233011 | 72 | 208 | 0.0 | 3.0 | 0.00 | 0.00 | 0.00 | 46 | 1008.4 |
| 20260505232439 | 72 | 254 | 0.0 | 3.0 | 0.00 | 0.00 | 0.00 | 46 | 1008.4 |
| 20260505231907 | 72 | 177 | 0.0 | 2.0 | 0.00 | 0.00 | 0.00 | 46 | 1008.3 |
| 20260505231606 | 73 | 178 | 0.0 | 2.0 | 0.00 | 0.00 | 0.00 | 46 | 1008.4 |
| 20260505230803 | 73 | 247 | 0.0 | 0.0 | 0.00 | 0.00 | 0.00 | 46 | 1008.3 |
| 20260505230231 | 73 | 196 | 0.0 | 0.0 | 0.00 | 0.00 | 0.00 | 45 | 1008.3 |
| 20260505225731 | 73 | 195 | 0.0 | 0.0 | 0.00 | 0.00 | 0.00 | 44 | 1008.3 |
| 20260505225231 | 73 | 185 | 0.0 | 2.0 | 0.00 | 0.00 | 0.00 | 44 | 1008.2 |
| 20260505224700 | 73 | 239 | 0.0 | 2.0 | 0.00 | 0.00 | 0.00 | 43 | 1008.2 |
| 20260505224127 | 74 | 245 | 0.0 | 0.0 | 0.00 | 0.00 | 0.00 | 43 | 1008.1 |
| 20260505223555 | 74 | 182 | 0.0 | 0.0 | 0.00 | 0.00 | 0.00 | 43 | 1008.2 |
| 20260505223023 | 74 | 179 | 0.0 | 0.0 | 0.00 | 0.00 | 0.00 | 42 | 1008.1 |
| 20260505222524 | 74 | 235 | 0.0 | 5.0 | 0.00 | 0.00 | 0.00 | 42 | 1008.1 |
| 20260505221950 | 74 | 228 | 1.0 | 5.0 | 0.00 | 0.00 | 0.00 | 42 | 1008.0 |
| 20260505221450 | 74 | 245 | 1.0 | 4.0 | 0.00 | 0.00 | 0.00 | 42 | 1007.9 |
| 20260505221150 | 75 | 190 | 2.0 | 9.0 | 0.00 | 0.00 | 0.00 | 41 | 1008.0 |
| 20260505220418 | 75 | 199 | 3.0 | 13.0 | 0.00 | 0.00 | 0.00 | 41 | 1008.2 |
| 20260505220149 | 75 | 226 | 3.0 | 13.0 | 0.00 | 0.00 | 0.00 | 39 | 1008.1 |
| 20260505215419 | 75 | 259 | 1.0 | 6.0 | 0.00 | 0.00 | 0.00 | 39 | 1008.0 |
| 20260505214846 | 76 | 248 | 1.0 | 1.0 | 0.00 | 0.00 | 0.00 | 39 | 1007.9 |
| 20260505214314 | 76 | 222 | 1.0 | 9.0 | 0.00 | 0.00 | 0.00 | 38 | 1008.0 |
| 20260505214245 | 76 | 165 | 2.0 | 9.0 | 0.00 | 0.00 | 0.00 | 39 | 1007.8 |
| 20260505213211 | 76 | 205 | 2.0 | 5.0 | 0.00 | 0.00 | 0.00 | 39 | 1007.8 |
| 20260505212942 | 76 | 246 | 2.0 | 11.0 | 0.00 | 0.00 | 0.00 | 38 | 1007.7 |
| 20260505212141 | 76 | 197 | 2.0 | 12.0 | 0.00 | 0.00 | 0.00 | 38 | 1007.6 |
| 20260505211611 | 76 | 239 | 3.0 | 12.0 | 0.00 | 0.00 | 0.00 | 40 | 1007.4 |
| 20260505211040 | 76 | 249 | 4.0 | 10.0 | 0.00 | 0.00 | 0.00 | 38 | 1007.5 |
| 20260505210508 | 76 | 168 | 3.0 | 10.0 | 0.00 | 0.00 | 0.00 | 38 | 1007.4 |
| 20260505205938 | 76 | 168 | 2.0 | 6.0 | 0.00 | 0.00 | 0.00 | 38 | 1007.6 |
| 20260505205407 | 76 | 176 | 1.0 | 6.0 | 0.00 | 0.00 | 0.00 | 37 | 1007.4 |
| 20260505204835 | 77 | 247 | 2.0 | 10.0 | 0.00 | 0.00 | 0.00 | 38 | 1007.4 |
| 20260505204303 | 77 | 176 | 3.0 | 13.0 | 0.00 | 0.00 | 0.00 | 37 | 1007.5 |
| 20260505203732 | 77 | 222 | 3.0 | 14.0 | 0.00 | 0.00 | 0.00 | 36 | 1007.5 |
| 20260505203231 | 78 | 235 | 2.0 | 14.0 | 0.00 | 0.00 | 0.00 | 36 | 1007.5 |
| 20260505202701 | 78 | 166 | 2.0 | 6.0 | 0.00 | 0.00 | 0.00 | 36 | 1007.7 |
| 20260505202130 | 78 | 185 | 3.0 | 11.0 | 0.00 | 0.00 | 0.00 | 37 | 1007.5 |
| 20260505201630 | 78 | 247 | 4.0 | 13.0 | 0.00 | 0.00 | 0.00 | 37 | 1007.4 |
| 20260505201056 | 78 | 224 | 4.0 | 13.0 | 0.00 | 0.00 | 0.00 | 36 | 1007.5 |
| 20260505200557 | 78 | 247 | 5.0 | 16.0 | 0.00 | 0.00 | 0.00 | 37 | 1007.5 |
| 20260505200057 | 78 | 167 | 6.0 | 16.0 | 0.00 | 0.00 | 0.00 | 36 | 1007.7 |
| 20260505195556 | 78 | 274 | 4.0 | 14.0 | 0.00 | 0.00 | 0.00 | 36 | 1007.7 |
| 20260505195056 | 79 | 170 | 3.0 | 12.0 | 0.00 | 0.00 | 0.00 | 38 | 1007.8 |
| 20260505194524 | 79 | 215 | 3.0 | 13.0 | 0.00 | 0.00 | 0.00 | 38 | 1007.8 |
| 20260505193951 | 79 | 174 | 3.0 | 13.0 | 0.00 | 0.00 | 0.00 | 38 | 1007.9 |
| 20260505193451 | 78 | 193 | 4.0 | 16.0 | 0.00 | 0.00 | 0.00 | 39 | 1008.1 |
| 20260505192951 | 78 | 171 | 4.0 | 16.0 | 0.00 | 0.00 | 0.00 | 39 | 1008.1 |
| 20260505192650 | 79 | 220 | 2.0 | 10.0 | 0.00 | 0.00 | 0.00 | 39 | 1008.0 |
| 20260505191919 | 79 | 185 | 3.0 | 10.0 | 0.00 | 0.00 | 0.00 | 38 | 1008.1 |
| 20260505191420 | 79 | 272 | 3.0 | 13.0 | 0.00 | 0.00 | 0.00 | 38 | 1008.1 |
| 20260505191150 | 79 | 158 | 3.0 | 13.0 | 0.00 | 0.00 | 0.00 | 37 | 1008.1 |
| 20260505190349 | 79 | 217 | 2.0 | 11.0 | 0.00 | 0.00 | 0.00 | 39 | 1008.2 |
| 20260505185816 | 78 | 245 | 3.0 | 17.0 | 0.00 | 0.00 | 0.00 | 39 | 1008.3 |
| 20260505185515 | 78 | 158 | 4.0 | 16.0 | 0.00 | 0.00 | 0.00 | 38 | 1008.3 |
| 20260505184712 | 79 | 163 | 3.0 | 10.0 | 0.00 | 0.00 | 0.00 | 36 | 1008.5 |
| 20260505184413 | 80 | 253 | 3.0 | 10.0 | 0.00 | 0.00 | 0.00 | 38 | 1008.6 |
| 20260505183610 | 80 | 230 | 2.0 | 17.0 | 0.00 | 0.00 | 0.00 | 36 | 1008.6 |
| 20260505183038 | 80 | 243 | 3.0 | 17.0 | 0.00 | 0.00 | 0.00 | 38 | 1008.5 |
| 20260505182505 | 80 | 161 | 3.0 | 11.0 | 0.00 | 0.00 | 0.00 | 38 | 1008.6 |
| 20260505182436 | 80 | 182 | 2.0 | 11.0 | 0.00 | 0.00 | 0.00 | 38 | 1008.6 |
| 20260505181634 | 80 | 296 | 2.0 | 8.0 | 0.00 | 0.00 | 0.00 | 40 | 1008.6 |
| 20260505180831 | 79 | 213 | 3.0 | 14.0 | 0.00 | 0.00 | 0.00 | 39 | 1008.5 |
| 20260505180531 | 81 | 223 | 2.0 | 12.0 | 0.00 | 0.00 | 0.00 | 37 | 1009.0 |
| 20260505175730 | 81 | 253 | 2.0 | 12.0 | 0.00 | 0.00 | 0.00 | 37 | 1009.3 |
| 20260505175157 | 82 | 245 | 1.0 | 10.0 | 0.00 | 0.00 | 0.00 | 38 | 1009.0 |
| 20260505174625 | 81 | 184 | 2.0 | 11.0 | 0.00 | 0.00 | 0.00 | 39 | 1009.2 |
| 20260505174355 | 80 | 217 | 3.0 | 11.0 | 0.00 | 0.00 | 0.00 | 39 | 1008.9 |
| 20260505173625 | 80 | 177 | 2.0 | 7.0 | 0.00 | 0.00 | 0.00 | 38 | 1009.0 |
| 20260505173125 | 81 | 220 | 1.0 | 5.0 | 0.00 | 0.00 | 0.00 | 39 | 1009.2 |
| 20260505172625 | 80 | 196 | 2.0 | 10.0 | 0.00 | 0.00 | 0.00 | 39 | 1009.4 |
| 20260505172126 | 80 | 231 | 2.0 | 10.0 | 0.00 | 0.00 | 0.00 | 40 | 1009.3 |
| 20260505171552 | 80 | 252 | 2.0 | 11.0 | 0.00 | 0.00 | 0.00 | 38 | 1009.3 |
| 20260505171053 | 80 | 209 | 3.0 | 17.0 | 0.00 | 0.00 | 0.00 | 39 | 1009.4 |
| 20260505170823 | 79 | 209 | 3.0 | 17.0 | 0.00 | 0.00 | 0.00 | 41 | 1009.3 |
| 20260505170323 | 80 | 168 | 2.0 | 11.0 | 0.00 | 0.00 | 0.00 | 40 | 1009.4 |
| 20260505165519 | 81 | 193 | 3.0 | 11.0 | 0.00 | 0.00 | 0.00 | 41 | 1009.6 |
| 20260505165020 | 80 | 231 | 2.0 | 11.0 | 0.00 | 0.00 | 0.00 | 42 | 1009.6 |
| 20260505164519 | 79 | 217 | 2.0 | 4.0 | 0.00 | 0.00 | 0.00 | 46 | 1009.5 |
| 20260505164019 | 78 | 236 | 2.0 | 10.0 | 0.00 | 0.00 | 0.00 | 44 | 1009.5 |
| 20260505163519 | 78 | 211 | 2.0 | 7.0 | 0.00 | 0.00 | 0.00 | 43 | 1009.7 |
| 20260505163218 | 78 | 230 | 3.0 | 7.0 | 0.00 | 0.00 | 0.00 | 44 | 1009.8 |
| 20260505162447 | 79 | 178 | 1.0 | 7.0 | 0.00 | 0.00 | 0.00 | 45 | 1010.0 |
| 20260505161948 | 79 | 225 | 1.0 | 7.0 | 0.00 | 0.00 | 0.00 | 44 | 1010.1 |
| 20260505161447 | 78 | 232 | 2.0 | 10.0 | 0.00 | 0.00 | 0.00 | 45 | 1010.0 |
| 20260505160947 | 78 | 203 | 2.0 | 16.0 | 0.00 | 0.00 | 0.00 | 45 | 1010.1 |
| 20260505160447 | 77 | 173 | 3.0 | 17.0 | 0.00 | 0.00 | 0.00 | 44 | 1010.0 |
| 20260505160218 | 77 | 200 | 3.0 | 17.0 | 0.00 | 0.00 | 0.00 | 45 | 1010.0 |
| 20260505153312 | 80 | 238 | 2.0 | 9.0 | 0.00 | 0.00 | 0.00 | 44 | 1010.7 |
| 20260505152811 | 79 | 217 | 2.0 | 12.0 | 0.00 | 0.00 | 0.00 | 43 | 1010.8 |
| 20260505152241 | 80 | 165 | 2.0 | 12.0 | 0.00 | 0.00 | 0.00 | 42 | 1010.8 |
| 20260505151708 | 78 | 236 | 3.0 | 12.0 | 0.00 | 0.00 | 0.00 | 44 | 1010.7 |
| 20260505151137 | 78 | 253 | 2.0 | 12.0 | 0.00 | 0.00 | 0.00 | 45 | 1010.9 |
| 20260505150637 | 78 | 202 | 2.0 | 9.0 | 0.00 | 0.00 | 0.00 | 43 | 1010.9 |
| 20260505150106 | 79 | 220 | 1.0 | 9.0 | 0.00 | 0.00 | 0.00 | 42 | 1010.9 |
| 20260505140542 | 74 | 178 | 1.0 | 12.0 | 0.00 | 0.00 | 0.00 | 51 | 1010.8 |
| 20260505130231 | 71 | 131 | 0.0 | 1.0 | 0.00 | 0.00 | 0.00 | 56 | 1010.9 |
| 20260505124700 | 67 | 151 | 0.0 | 2.0 | 0.00 | 0.00 | 0.00 | 60 | 1010.6 |
| 20260505124159 | 67 | 161 | 0.0 | 1.0 | 0.00 | 0.00 | 0.00 | 62 | 1010.5 |
| 20260505123658 | 66 | 244 | 0.0 | 3.0 | 0.00 | 0.00 | 0.00 | 62 | 1010.7 |
| 20260505123159 | 66 | 230 | 0.0 | 3.0 | 0.00 | 0.00 | 0.00 | 62 | 1010.7 |
| 20260505122930 | 66 | 195 | 0.0 | 0.0 | 0.00 | 0.00 | 0.00 | 61 | 1010.6 |
| 20260505122159 | 65 | 165 | 0.0 | 0.0 | 0.00 | 0.00 | 0.00 | 65 | 1010.6 |
| 20260505121629 | 64 | 166 | 0.0 | 0.0 | 0.00 | 0.00 | 0.00 | 66 | 1010.4 |
| 20260505121132 | 63 | 165 | 0.0 | 1.0 | 0.00 | 0.00 | 0.00 | 65 | 1010.4 |
| 20260505121128 | 63 | 166 | 0.0 | 1.0 | 0.00 | 0.00 | 0.00 | 67 | 1010.5 |
| 20260505120401 | 63 | 170 | 0.0 | 0.0 | 0.00 | 0.00 | 0.00 | 65 | 1010.4 |
| 20260505115628 | 62 | 143 | 0.0 | 0.0 | 0.00 | 0.00 | 0.00 | 68 | 1010.3 |
| 20260505115056 | 61 | 200 | 0.0 | 1.0 | 0.00 | 0.00 | 0.00 | 68 | 1010.4 |
| 20260505114555 | 61 | 178 | 0.0 | 1.0 | 0.00 | 0.00 | 0.00 | 67 | 1010.1 |
| 20260505114023 | 61 | 263 | 0.0 | 5.0 | 0.00 | 0.00 | 0.00 | 68 | 1010.2 |
| 20260505113721 | 60 | 170 | 0.0 | 5.0 | 0.00 | 0.00 | 0.00 | 70 | 1010.2 |
| 20260505112951 | 59 | 167 | 0.0 | 0.0 | 0.00 | 0.00 | 0.00 | 70 | 1010.1 |
| 20260505112450 | 59 | 172 | 0.0 | 0.0 | 0.00 | 0.00 | 0.00 | 73 | 1010.1 |
| 20260505111918 | 58 | 157 | 0.0 | 0.0 | 0.00 | 0.00 | 0.00 | 74 | 1009.8 |
| 20260505111418 | 58 | 163 | 0.0 | 0.0 | 0.00 | 0.00 | 0.00 | 74 | 1009.9 |
| 20260505111149 | 57 | 163 | 0.0 | 0.0 | 0.00 | 0.00 | 0.00 | 73 | 1009.8 |
| 20260505110418 | 56 | 138 | 0.0 | 0.0 | 0.00 | 0.00 | 0.00 | 75 | 1009.7 |